Camarillo, CA

10:09 PM PDT on July 20, 2017 (GMT -0700)
Camarillo

Weather History for KCMA - October, 2012

Change the Weather History Date:

Wednesday, October 24, 2012

  Actual Average Record
Temperature  
Mean Temperature 60 °F 62 °F  
Max Temperature 72 °F 73 °F 99 °F (2007)
Min Temperature 48 °F 52 °F 39 °F (1949)
Degree Days  
Heating Degree Days 5 4  
Month to date heating degree days 22 63  
Since 1 July heating degree days 57 95  
Cooling Degree Days 0 1  
Month to date cooling degree days 54 24  
Year to date cooling degree days 345 307  
Growing Degree Days 10 (Base 50)    
Moisture  
Dew Point 47 °F    
Average Humidity 59    
Maximum Humidity 86    
Minimum Humidity 31    
Precipitation  
Precipitation 0.00 in 0.02 in 0.03 in (1973)
Month to date precipitation T 0.39  
Year to date precipitation 5.72 11.61  
Since 1 July precipitation 0.04  
Sea Level Pressure  
Sea Level Pressure 30.05 in    
Wind  
Wind Speed 4 mph (NE)    
Max Wind Speed 15 mph    
Max Gust Speed 22 mph    
Visibility 10 miles    
Events      
T = Trace of Precipitation, MM = Missing Value Source: NWS Daily Summary

Daily Weather History Graph

Daily Weather History Graph

Search for Another Location

Airport or City:

Trip Planner

Search our weather history database for the weather conditions in past years. The results will help you decide how hot, cold, wet, or windy it might be!

Date:

Astronomy

Oct. 24, 2012 Rise Set
Actual Time 7:09 AM PDT 6:10 PM PDT
Civil Twilight 6:44 AM PDT 6:36 PM PDT
Nautical Twilight 6:14 AM PDT 7:05 PM PDT
Astronomical Twilight 5:45 AM PDT 7:34 PM PDT
Moon 3:18 PM PDT (10/24) 2:22 AM PDT (10/24)
Length of Visible Light 11h 52m
Length of Day
11h 01m
Waxing Gibbous, 77% of the Moon is Illuminated
Oct 24
Waxing Gibbous
Oct 29
Full
Nov 6
Last Quarter
Nov 13
New
Nov 20
First Quarter

Hourly Weather History & Observations

Time (PDT) Temp. Dew Point Humidity Pressure Visibility Wind Dir Wind Speed Gust Speed Precip Events Conditions
12:55 AM 55.0 °F 48.9 °F 80% 29.98 in 10.0 mi NE 4.6 mph - N/A   Clear
1:55 AM 54.0 °F 48.0 °F 80% 29.99 in 10.0 mi Calm Calm - N/A   Clear
2:55 AM 54.0 °F 48.9 °F 83% 29.99 in 10.0 mi ENE 4.6 mph - N/A   Clear
3:55 AM 50.0 °F 46.9 °F 89% 29.99 in 10.0 mi North 3.5 mph - N/A   Clear
4:55 AM 50.0 °F 46.0 °F 86% 30.00 in 10.0 mi Calm Calm - N/A   Clear
5:55 AM 51.1 °F 46.0 °F 83% 30.02 in 10.0 mi ENE 4.6 mph - N/A   Clear
6:55 AM 50.0 °F 45.0 °F 83% 30.04 in 10.0 mi Calm Calm - N/A   Clear
7:55 AM 51.1 °F 46.0 °F 83% 30.06 in 10.0 mi ENE 3.5 mph - N/A   Clear
8:55 AM 57.0 °F 46.0 °F 67% 30.09 in 10.0 mi Calm Calm - N/A   Clear
9:55 AM 63.0 °F 44.1 °F 50% 30.09 in 10.0 mi Calm Calm - N/A   Clear
10:55 AM 64.9 °F 45.0 °F 48% 30.09 in 10.0 mi WSW 3.5 mph - N/A   Clear
11:55 AM 66.0 °F 44.1 °F 45% 30.08 in 10.0 mi Calm Calm - N/A   Clear
12:55 PM 68.0 °F 46.9 °F 47% 30.06 in 10.0 mi SW 9.2 mph - N/A   Clear
1:55 PM 71.1 °F 39.9 °F 32% 30.04 in 10.0 mi WSW 9.2 mph - N/A   Clear
2:55 PM 71.1 °F 43.0 °F 36% 30.04 in 10.0 mi West 12.7 mph - N/A   Clear
3:55 PM 71.1 °F 48.9 °F 45% 30.04 in 10.0 mi West 11.5 mph - N/A   Clear
4:55 PM 68.0 °F 52.0 °F 56% 30.03 in 10.0 mi SW 5.8 mph - N/A   Clear
5:55 PM 66.9 °F 54.0 °F 63% 30.04 in 10.0 mi Calm Calm - N/A   Clear
6:55 PM 63.0 °F 53.1 °F 70% 30.05 in 10.0 mi East 6.9 mph - N/A   Clear
7:55 PM 61.0 °F 52.0 °F 72% 30.08 in 10.0 mi ENE 3.5 mph - N/A   Clear
8:55 PM 60.1 °F 51.1 °F 72% 30.08 in 10.0 mi NE 6.9 mph - N/A   Clear
9:55 PM 59.0 °F 44.1 °F 58% 30.10 in 10.0 mi NE 5.8 mph - N/A   Clear
10:55 PM 55.9 °F 41.0 °F 57% 30.11 in 10.0 mi Calm Calm - N/A   Clear
11:55 PM 55.0 °F 43.0 °F 64% 30.11 in 10.0 mi Calm Calm - N/A   Clear